Content
SEND FEEDBACK

Daily
Averages
Monthly
Summary
United States of America

DES PLAINES, ILLINOIS


Home > North America > United States > Illinois
Elevation: 651 feet     Latitude: 42 00N     Longitude: 087 54W

WEATHER
 
SELECT A DAY
Number of Records: 195,054;   Date Range: 7/8/95 - 9/3/14
 
SHARE

PRINT THIS DATA

[ ← Previous Day ]
WEATHER ALMANAC - MAY 16, 2014
[ Next Day → ]
[ °C ]   °F
Weather ElementAverageHighLow
Temperature40.5 °F46 °F (4:52 pm)35.6 °F (7:48 am)
Dewpoint34.5 °F37.9 °F (11:52 pm)32 °F (5:52 am)
Humidity79.8 %93 % (7:48 am)66 % (4:52 pm)
Barometer30.07 in30.12 in (10:52 pm)30.04 in (4:52 am)
Wind Speed5.3 mph9.2 mph (7:52 am)
Weather ElementAverage
Visibility9 mi
Wind DirectionENE (67.9 °)

Weather ElementTotal
Precipitation0.33 in
Heating Degree Days24.2 (Base 65)
Averaged from 28 records on May 16, 2014
WEATHER CONDITIONS BREAKOUT
WIND DIRECTION BREAKOUT
WEATHER BY HOUR - MAY 16, 2014
[ °C ]   °F
Local TimeTemperatureDewpointHumidityBarometerVisibilityWind DirectionWind SpeedGust SpeedPrecipitationEventsConditions
3:52 AM39.0 °F34.0 °F82 %30.05 in10.0 miCalmMostly Cloudy
4:52 AM39.9 °F34.0 °F79 %30.04 in10.0 miENE (60°)8.1 mphOvercast
5:52 AM39.9 °F32.0 °F73 %30.05 in10.0 miENE (70°)5.8 mphOvercast
6:50 AM37.4 °F32.0 °F81 %30.06 in10.0 miNE (50°)6.9 mph0.01 inRainLight Rain
6:52 AM37.9 °F33.1 °F83 %30.07 in10.0 miNE (50°)5.8 mph0.01 inRainLight Rain
7:48 AM35.6 °F33.8 °F93 %30.06 in2.5 miNE (40°)8.1 mph0.03 inSnowLight Snow
7:52 AM36.0 °F33.1 °F89 %30.08 in2.5 miNE (40°)9.2 mph0.03 inSnowLight Snow
8:32 AM36.0 °F33.1 °F89 %30.07 in2.5 miNE (40°)5.8 mph0.04 inSnowLight Snow
8:50 AM35.6 °F33.8 °F93 %30.07 in10.0 miNE (50°)4.6 mph0.04 inOvercast
8:52 AM36.0 °F34.0 °F93 %30.08 in10.0 miNE (50°)5.8 mph0.04 inOvercast
9:17 AM37.0 °F34.0 °F89 %30.07 in6.0 miNE (50°)6.9 mph0.01 inSnowLight Snow
9:32 AM37.0 °F34.0 °F89 %30.07 in8.0 miCalm0.02 inRainLight Rain
9:47 AM37.4 °F33.8 °F87 %30.07 in10.0 miENE (60°)4.6 mph0.03 inRainLight Rain
9:52 AM37.0 °F34.0 °F89 %30.08 in10.0 miENE (60°)5.8 mph0.03 inRainLight Rain
10:52 AM37.9 °F35.1 °F89 %30.09 in10.0 miEast (90°)3.5 mph0.04 inRainLight Rain
11:52 AM41.0 °F35.1 °F79 %30.08 in10.0 miNE (50°)5.8 mph0.00 inOvercast
12:52 PM43.0 °F35.1 °F74 %30.08 in10.0 miENE (70°)4.6 mphOvercast
12:55 PM43.0 °F36.0 °F76 %30.06 in10.0 miVariable4.6 mphOvercast
1:28 PM44.1 °F35.1 °F71 %30.06 in10.0 miVariable5.8 mphOvercast
1:52 PM44.1 °F35.1 °F71 %30.07 in10.0 miVariable4.6 mphOvercast
3:52 PM45.0 °F35.1 °F68 %30.08 in10.0 miENE (70°)8.1 mph0.00 inOvercast
4:52 PM46.0 °F35.1 °F66 %30.07 in10.0 miEast (100°)5.8 mphOvercast
5:52 PM45.0 °F35.1 °F68 %30.07 in10.0 miEast (80°)4.6 mphOvercast
6:52 PM45.0 °F35.1 °F68 %30.08 in10.0 miSSE (150°)3.5 mphOvercast
7:52 PM45.0 °F35.1 °F68 %30.09 in10.0 miESE (110°)4.6 mphOvercast
8:52 PM44.1 °F36.0 °F73 %30.10 in10.0 miSSE (160°)4.6 mphOvercast
10:52 PM44.1 °F37.0 °F76 %30.12 in10.0 miSSW (200°)4.6 mphOvercast
11:52 PM44.1 °F37.9 °F79 %30.11 in10.0 miSSW (200°)5.8 mphOvercast
Hourly data recorded from KPWK, located miles away from Des Plaines, Illinois







STORIES FROM OUR PARTNERS